Location: Newark
(54.1978°N, 18.3264°E)
Time: 04:51:37
(UTC+00:00)

OTV 5 (USA 277) - Pass Details

Date: 30 August 2019
Orbit: 295 x 339 km, 54.5° (Epoch: 08 September)

Event Time Altitude Azimuth Distance (km) Brightness Sun altitude
Rises 19:22:55 0° 263° (W) 2,001 ? -13.7°
Reaches altitude 10° 19:24:52 10° 264° (W) 1,172 ? -14.0°
Maximum altitude 19:27:27 85° 354° (N) 305 ? -14.3°
Enters shadow 19:28:25 34° 80° (E) 520 ? -14.4°
